Year,Month,Day,Hour,Minute,Value (Times are PST for temperature in C)
2022,02,28,00,00,-24.90
2022,02,28,00,01,-24.90
2022,02,28,00,02,-24.90
2022,02,28,00,03,-24.90
2022,02,28,00,04,-24.90
2022,02,28,00,05,-24.90
2022,02,28,00,06,-24.80
2022,02,28,00,07,-24.80
2022,02,28,00,08,-24.80
2022,02,28,00,09,-24.80
2022,02,28,00,10,-24.90
2022,02,28,00,11,-24.90
2022,02,28,00,12,-24.80
2022,02,28,00,13,-24.90
2022,02,28,00,16,-24.90
2022,02,28,00,17,-24.90
2022,02,28,00,18,-24.90
2022,02,28,00,20,-24.90
2022,02,28,00,21,-24.90
2022,02,28,00,22,-24.90
2022,02,28,00,23,-24.90
2022,02,28,00,24,-24.80
2022,02,28,00,25,-24.90
2022,02,28,00,26,-24.90
2022,02,28,00,27,-24.80
2022,02,28,00,28,-24.80
2022,02,28,00,29,-24.90
2022,02,28,00,30,-24.80
2022,02,28,00,31,-24.80
2022,02,28,00,32,-24.80
2022,02,28,00,33,-24.80
2022,02,28,00,34,-24.70
2022,02,28,00,35,-24.70
2022,02,28,00,36,-24.70
2022,02,28,00,37,-24.70
2022,02,28,00,38,-24.60
2022,02,28,00,39,-24.70
2022,02,28,00,40,-24.60
2022,02,28,00,41,-24.80
2022,02,28,00,42,-24.80
2022,02,28,00,43,-24.90
2022,02,28,00,44,-24.80
2022,02,28,00,45,-24.70
2022,02,28,00,46,-24.80
2022,02,28,00,47,-24.70
2022,02,28,00,48,-24.60
2022,02,28,00,49,-24.90
2022,02,28,00,50,-24.90
2022,02,28,00,59,-24.90
2022,02,28,01,00,-24.90
2022,02,28,01,01,-24.80
2022,02,28,01,02,-24.90
2022,02,28,01,03,-24.90
2022,02,28,01,04,-24.80
2022,02,28,01,05,-24.90
2022,02,28,01,06,-24.80
2022,02,28,01,07,-24.80
2022,02,28,01,08,-24.80
2022,02,28,01,09,-24.80
2022,02,28,01,10,-24.80
2022,02,28,01,11,-24.90
2022,02,28,01,12,-24.80
2022,02,28,01,13,-24.70
2022,02,28,01,15,-24.90
2022,02,28,01,18,-24.90
2022,02,28,01,19,-24.80
2022,02,28,01,20,-24.90
2022,02,28,01,21,-24.80
2022,02,28,01,22,-24.90
2022,02,28,01,23,-24.90
2022,02,28,01,24,-24.90
2022,02,28,12,28,-24.90
2022,02,28,12,29,-24.80
2022,02,28,12,30,-24.80
2022,02,28,12,31,-24.50
2022,02,28,12,32,-24.50
2022,02,28,12,33,-24.40
2022,02,28,12,34,-24.40
2022,02,28,12,35,-24.30
2022,02,28,12,36,-24.10
2022,02,28,12,37,-24.10
2022,02,28,12,38,-24.00
2022,02,28,12,39,-24.00
2022,02,28,12,40,-23.80
2022,02,28,12,41,-23.90
2022,02,28,12,42,-24.00
2022,02,28,12,43,-24.10
2022,02,28,12,44,-24.10
2022,02,28,12,45,-23.80
2022,02,28,12,46,-24.10
2022,02,28,12,47,-24.80
2022,02,28,12,48,-24.80
2022,02,28,12,49,-24.90
2022,02,28,12,50,-24.80
2022,02,28,12,51,-24.90
2022,02,28,12,52,-24.90
2022,02,28,12,53,-24.90
2022,02,28,12,54,-24.80
2022,02,28,12,55,-24.80
2022,02,28,12,56,-24.70
2022,02,28,12,57,-24.50
2022,02,28,12,58,-24.60
2022,02,28,12,59,-24.50
2022,02,28,13,00,-24.30
2022,02,28,13,01,-24.30
2022,02,28,13,02,-24.40
2022,02,28,13,03,-24.50
2022,02,28,13,04,-24.60
2022,02,28,13,05,-24.60
2022,02,28,13,06,-24.60
2022,02,28,13,07,-24.70
2022,02,28,13,08,-24.30
2022,02,28,13,09,-24.30
2022,02,28,13,10,-24.00
2022,02,28,13,11,-24.20
2022,02,28,13,12,-24.40
2022,02,28,13,13,-24.50
2022,02,28,13,14,-24.50
2022,02,28,13,15,-24.20
2022,02,28,13,16,-24.30
2022,02,28,13,17,-24.50
2022,02,28,13,18,-24.60
2022,02,28,13,19,-24.50
2022,02,28,13,20,-24.60
2022,02,28,13,21,-24.50
2022,02,28,13,22,-24.40
2022,02,28,13,23,-24.50
2022,02,28,13,24,-24.60
2022,02,28,13,25,-24.40
2022,02,28,13,26,-24.30
2022,02,28,13,27,-24.60
2022,02,28,13,28,-24.70
2022,02,28,13,29,-24.40
2022,02,28,13,30,-24.20
2022,02,28,13,31,-24.10
2022,02,28,13,32,-24.20
2022,02,28,13,33,-24.20
2022,02,28,13,34,-24.40
2022,02,28,13,35,-24.60
2022,02,28,13,36,-24.60
2022,02,28,13,37,-24.60
2022,02,28,13,38,-24.50
2022,02,28,13,39,-24.40
2022,02,28,13,40,-24.40
2022,02,28,13,41,-24.30
2022,02,28,13,42,-24.10
2022,02,28,13,43,-24.10
2022,02,28,13,44,-24.10
2022,02,28,13,45,-23.80
2022,02,28,13,46,-23.80
2022,02,28,13,47,-23.90
2022,02,28,13,48,-23.90
2022,02,28,13,49,-23.90
2022,02,28,13,50,-23.90
2022,02,28,13,51,-23.90
2022,02,28,13,52,-23.90
2022,02,28,13,53,-23.70
2022,02,28,13,54,-24.00
2022,02,28,13,55,-24.00
2022,02,28,13,56,-23.90
2022,02,28,13,57,-23.00
2022,02,28,13,58,-23.80
2022,02,28,13,59,-23.70
2022,02,28,14,00,-22.20
2022,02,28,14,01,-22.20
2022,02,28,14,02,-22.20
2022,02,28,14,03,-22.30
2022,02,28,14,04,-22.20
2022,02,28,14,05,-21.90
2022,02,28,14,06,-22.10
2022,02,28,14,07,-22.30
2022,02,28,14,08,-23.10
2022,02,28,14,09,-23.00
2022,02,28,14,10,-21.90
2022,02,28,14,11,-21.00
2022,02,28,14,12,-21.00
2022,02,28,14,13,-21.00
2022,02,28,14,14,-21.10
2022,02,28,14,15,-21.20
2022,02,28,14,16,-21.20
2022,02,28,14,17,-21.20
2022,02,28,14,18,-21.20
2022,02,28,14,19,-21.20
2022,02,28,14,20,-21.30
2022,02,28,14,21,-21.20
2022,02,28,14,22,-21.20
2022,02,28,14,23,-21.30
2022,02,28,14,24,-21.30
2022,02,28,14,25,-21.30
2022,02,28,14,26,-21.40
2022,02,28,14,27,-21.40
2022,02,28,14,28,-21.40
2022,02,28,14,29,-21.50
2022,02,28,14,30,-21.40
2022,02,28,14,31,-21.50
2022,02,28,14,32,-21.40
2022,02,28,14,33,-21.60
2022,02,28,14,34,-21.40
2022,02,28,14,35,-21.30
2022,02,28,14,36,-21.30
2022,02,28,14,37,-21.30
2022,02,28,14,38,-21.20
2022,02,28,14,39,-21.10
2022,02,28,14,40,-21.10
2022,02,28,14,41,-21.20
2022,02,28,14,42,-21.10
2022,02,28,14,43,-21.10
2022,02,28,14,44,-21.20
2022,02,28,14,45,-21.40
2022,02,28,14,46,-21.30
2022,02,28,14,47,-21.30
2022,02,28,14,48,-21.20
2022,02,28,14,49,-21.50
2022,02,28,14,50,-21.90
2022,02,28,14,51,-22.50
2022,02,28,14,52,-22.00
2022,02,28,14,53,-22.00
2022,02,28,14,54,-21.80
2022,02,28,14,55,-21.90
2022,02,28,14,56,-21.90
2022,02,28,14,57,-21.60
2022,02,28,14,58,-21.70
2022,02,28,14,59,-21.60
2022,02,28,15,00,-21.30
2022,02,28,15,01,-21.20
2022,02,28,15,02,-21.10
2022,02,28,15,03,-21.20
2022,02,28,15,04,-21.30
2022,02,28,15,05,-21.20
2022,02,28,15,06,-21.20
2022,02,28,15,07,-21.30
2022,02,28,15,08,-21.30
2022,02,28,15,09,-21.10
2022,02,28,15,10,-21.10
2022,02,28,15,11,-21.20
2022,02,28,15,12,-21.10
2022,02,28,15,13,-21.10
2022,02,28,15,14,-21.20
2022,02,28,15,15,-21.00
2022,02,28,15,16,-21.00
2022,02,28,15,17,-21.10
2022,02,28,15,18,-21.00
2022,02,28,15,19,-21.10
2022,02,28,15,20,-21.00
2022,02,28,15,21,-21.00
2022,02,28,15,22,-21.00
2022,02,28,15,23,-21.00
2022,02,28,15,24,-21.00
2022,02,28,15,25,-21.10
2022,02,28,15,26,-21.00
2022,02,28,15,27,-21.00
2022,02,28,15,28,-21.00
2022,02,28,15,29,-21.00
2022,02,28,15,30,-21.00
2022,02,28,15,31,-21.00
2022,02,28,15,32,-21.10
2022,02,28,15,33,-21.00
2022,02,28,15,34,-21.00
2022,02,28,15,35,-20.90
2022,02,28,15,36,-20.90
2022,02,28,15,37,-20.80
2022,02,28,15,38,-20.80
2022,02,28,15,39,-20.70
2022,02,28,15,40,-20.80
2022,02,28,15,41,-20.80
2022,02,28,15,42,-20.90
2022,02,28,15,43,-20.80
2022,02,28,15,44,-20.80
2022,02,28,15,45,-20.80
2022,02,28,15,46,-20.80
2022,02,28,15,47,-20.80
2022,02,28,15,48,-20.70
2022,02,28,15,49,-20.90
2022,02,28,15,50,-20.70
2022,02,28,15,51,-20.80
2022,02,28,15,52,-20.80
2022,02,28,15,53,-20.80
2022,02,28,15,54,-20.80
2022,02,28,15,55,-20.80
2022,02,28,15,56,-20.70
2022,02,28,15,57,-20.70
2022,02,28,15,58,-20.80
2022,02,28,15,59,-20.80
2022,02,28,16,00,-20.70
2022,02,28,16,01,-20.70
2022,02,28,16,02,-20.70
2022,02,28,16,03,-20.70
2022,02,28,16,04,-20.70
2022,02,28,16,05,-20.80
2022,02,28,16,06,-20.70
2022,02,28,16,07,-20.80
2022,02,28,16,08,-20.70
2022,02,28,16,09,-20.70
2022,02,28,16,10,-20.70
2022,02,28,16,11,-20.70
2022,02,28,16,12,-20.70
2022,02,28,16,13,-20.70
2022,02,28,16,14,-20.70
2022,02,28,16,15,-20.70
2022,02,28,16,16,-20.70
2022,02,28,16,17,-20.70
2022,02,28,16,18,-20.70
2022,02,28,16,19,-20.70
2022,02,28,16,20,-20.80
2022,02,28,16,21,-20.70
2022,02,28,16,22,-20.80
2022,02,28,16,23,-20.80
2022,02,28,16,24,-20.70
2022,02,28,16,25,-20.70
2022,02,28,16,26,-20.70
2022,02,28,16,27,-20.70
2022,02,28,16,28,-20.80
2022,02,28,16,29,-20.70
2022,02,28,16,30,-20.80
2022,02,28,16,31,-20.70
2022,02,28,16,32,-20.80
2022,02,28,16,33,-20.80
2022,02,28,16,34,-20.70
2022,02,28,16,35,-20.80
2022,02,28,16,36,-20.70
2022,02,28,16,37,-20.70
2022,02,28,16,38,-20.80
2022,02,28,16,39,-20.70
2022,02,28,16,40,-20.70
2022,02,28,16,41,-20.70
2022,02,28,16,42,-20.70
2022,02,28,16,43,-20.70
2022,02,28,16,44,-20.70
2022,02,28,16,45,-20.70
2022,02,28,16,46,-20.70
2022,02,28,16,47,-20.70
2022,02,28,16,48,-20.70
2022,02,28,16,49,-20.70
2022,02,28,16,50,-20.70
2022,02,28,16,51,-20.80
2022,02,28,16,52,-20.80
2022,02,28,16,53,-20.70
2022,02,28,16,54,-20.70
2022,02,28,16,55,-20.70
2022,02,28,16,56,-20.70
2022,02,28,16,57,-20.70
2022,02,28,16,58,-20.70
2022,02,28,16,59,-20.80
2022,02,28,17,00,-20.70
2022,02,28,17,01,-20.80
2022,02,28,17,02,-20.80
2022,02,28,17,03,-20.80
2022,02,28,17,04,-20.80
2022,02,28,17,05,-20.80
2022,02,28,17,06,-20.80
2022,02,28,17,07,-20.80
2022,02,28,17,08,-20.80
2022,02,28,17,09,-20.70
2022,02,28,17,10,-20.80
2022,02,28,17,11,-20.80
2022,02,28,17,12,-20.80
2022,02,28,17,13,-20.80
2022,02,28,17,14,-20.80
2022,02,28,17,15,-20.80
2022,02,28,17,16,-20.80
2022,02,28,17,17,-20.80
2022,02,28,17,18,-20.80
2022,02,28,17,19,-20.80
2022,02,28,17,20,-20.80
2022,02,28,17,21,-20.80
2022,02,28,17,22,-20.90
2022,02,28,17,23,-21.00
2022,02,28,17,24,-20.90
2022,02,28,17,25,-21.00
2022,02,28,17,26,-21.00
2022,02,28,17,27,-21.00
2022,02,28,17,28,-21.00
2022,02,28,17,29,-21.00
2022,02,28,17,30,-21.00
2022,02,28,17,31,-21.00
2022,02,28,17,32,-21.00
2022,02,28,17,33,-20.80
2022,02,28,17,34,-20.90
2022,02,28,17,35,-20.90
2022,02,28,17,36,-21.00
2022,02,28,17,37,-21.00
2022,02,28,17,38,-21.00
2022,02,28,17,39,-21.10
2022,02,28,17,40,-21.10
2022,02,28,17,41,-21.10
2022,02,28,17,42,-21.10
2022,02,28,17,43,-21.00
2022,02,28,17,44,-20.90
2022,02,28,17,45,-20.90
2022,02,28,17,46,-20.90
2022,02,28,17,47,-20.90
2022,02,28,17,48,-21.00
2022,02,28,17,49,-21.00
2022,02,28,17,50,-21.00
2022,02,28,17,51,-21.00
2022,02,28,17,52,-21.00
2022,02,28,17,53,-21.00
2022,02,28,17,54,-21.00
2022,02,28,17,55,-21.10
2022,02,28,17,56,-21.10
2022,02,28,17,57,-21.10
2022,02,28,17,58,-21.10
2022,02,28,17,59,-21.10
2022,02,28,18,00,-21.10
2022,02,28,18,01,-21.10
2022,02,28,18,02,-21.10
2022,02,28,18,03,-21.10
2022,02,28,18,04,-21.10
2022,02,28,18,05,-21.10
2022,02,28,18,06,-21.10
2022,02,28,18,07,-21.10
2022,02,28,18,08,-21.10
2022,02,28,18,09,-21.10
2022,02,28,18,10,-21.10
2022,02,28,18,11,-21.10
2022,02,28,18,12,-21.10
2022,02,28,18,13,-21.10
2022,02,28,18,14,-21.10
2022,02,28,18,15,-21.10
2022,02,28,18,16,-21.00
2022,02,28,18,17,-21.00
2022,02,28,18,18,-21.10
2022,02,28,18,19,-21.00
2022,02,28,18,20,-21.00
2022,02,28,18,21,-21.00
2022,02,28,18,22,-21.00
2022,02,28,18,23,-21.10
2022,02,28,18,24,-21.10
2022,02,28,18,25,-21.00
2022,02,28,18,26,-21.10
2022,02,28,18,27,-21.10
2022,02,28,18,28,-21.10
2022,02,28,18,29,-21.10
2022,02,28,18,30,-21.20
2022,02,28,18,31,-21.10
2022,02,28,18,32,-21.10
2022,02,28,18,33,-21.10
2022,02,28,18,34,-21.10
2022,02,28,18,35,-21.10
2022,02,28,18,36,-20.80
2022,02,28,18,37,-20.80
2022,02,28,18,38,-20.70
2022,02,28,18,39,-20.70
2022,02,28,18,40,-20.70
2022,02,28,18,41,-20.70
2022,02,28,18,42,-20.70
2022,02,28,18,43,-20.70
2022,02,28,18,44,-20.70
2022,02,28,18,45,-20.70
2022,02,28,18,46,-20.70
2022,02,28,18,47,-20.70
2022,02,28,18,48,-20.70
2022,02,28,18,49,-20.70
2022,02,28,18,50,-20.70
2022,02,28,18,51,-20.70
2022,02,28,18,52,-20.70
2022,02,28,18,53,-20.70
2022,02,28,18,54,-20.80
2022,02,28,18,55,-20.80
2022,02,28,18,56,-20.80
2022,02,28,18,57,-20.80
2022,02,28,18,58,-20.80
2022,02,28,18,59,-20.80
2022,02,28,19,00,-20.80
2022,02,28,19,01,-20.80
2022,02,28,19,02,-20.80
2022,02,28,19,03,-20.80
2022,02,28,19,04,-20.80
2022,02,28,19,05,-20.80
2022,02,28,19,06,-20.80
2022,02,28,19,07,-20.90
2022,02,28,19,08,-20.80
2022,02,28,19,09,-20.80
2022,02,28,19,10,-20.80
2022,02,28,19,11,-20.90
2022,02,28,19,12,-20.80
2022,02,28,19,13,-20.80
2022,02,28,19,14,-20.80
2022,02,28,19,15,-20.80
2022,02,28,19,16,-20.80
2022,02,28,19,17,-20.80
2022,02,28,19,18,-20.80
2022,02,28,19,19,-20.80
2022,02,28,19,20,-20.80
2022,02,28,19,21,-20.80
2022,02,28,19,22,-20.90
2022,02,28,19,23,-20.90
2022,02,28,19,24,-20.90
2022,02,28,19,25,-20.90
2022,02,28,19,26,-20.90
2022,02,28,19,27,-20.80
2022,02,28,19,28,-20.90
2022,02,28,19,29,-20.80
2022,02,28,19,30,-20.90
2022,02,28,19,31,-20.80
2022,02,28,19,32,-20.90
2022,02,28,19,33,-20.90
2022,02,28,19,34,-20.80
2022,02,28,19,35,-20.80
2022,02,28,19,36,-20.90
2022,02,28,19,37,-21.00
2022,02,28,19,38,-20.90
2022,02,28,19,39,-20.90
2022,02,28,19,40,-20.90
2022,02,28,19,41,-20.90
2022,02,28,19,42,-21.00
2022,02,28,19,43,-20.90
2022,02,28,19,44,-20.80
2022,02,28,19,45,-21.00
2022,02,28,19,46,-20.90
2022,02,28,19,47,-20.70
2022,02,28,19,48,-20.60
2022,02,28,19,49,-20.80
2022,02,28,19,50,-20.90
2022,02,28,19,51,-20.80
2022,02,28,19,52,-20.80
2022,02,28,19,53,-20.80
2022,02,28,19,54,-20.80
2022,02,28,19,55,-20.80
2022,02,28,19,56,-20.80
2022,02,28,19,57,-20.70
2022,02,28,19,58,-20.70
2022,02,28,19,59,-20.90
2022,02,28,20,00,-20.90
2022,02,28,20,01,-20.80
2022,02,28,20,02,-20.70
2022,02,28,20,03,-20.70
2022,02,28,20,04,-20.80
2022,02,28,20,05,-20.80
2022,02,28,20,06,-21.00
2022,02,28,20,07,-21.10
2022,02,28,20,08,-21.00
2022,02,28,20,09,-21.00
2022,02,28,20,10,-20.90
2022,02,28,20,11,-20.90
2022,02,28,20,12,-21.00
2022,02,28,20,13,-20.90
2022,02,28,20,14,-20.70
2022,02,28,20,15,-20.60
2022,02,28,20,16,-20.70
2022,02,28,20,17,-20.60
2022,02,28,20,18,-20.70
2022,02,28,20,19,-20.70
2022,02,28,20,20,-20.80
2022,02,28,20,21,-20.70
2022,02,28,20,22,-20.70
2022,02,28,20,23,-20.70
2022,02,28,20,24,-20.70
2022,02,28,20,25,-20.70
2022,02,28,20,26,-20.80
2022,02,28,20,27,-20.80
2022,02,28,20,28,-20.80
2022,02,28,20,29,-20.80
2022,02,28,20,30,-20.80
2022,02,28,20,31,-20.80
2022,02,28,20,32,-20.80
2022,02,28,20,33,-20.70
2022,02,28,20,34,-20.70
2022,02,28,20,35,-20.80
2022,02,28,20,36,-20.80
2022,02,28,20,37,-20.80
2022,02,28,20,38,-20.80
2022,02,28,20,39,-20.70
2022,02,28,20,40,-20.80
2022,02,28,20,41,-20.70
2022,02,28,20,42,-20.80
2022,02,28,20,43,-20.70
2022,02,28,20,44,-20.70
2022,02,28,20,45,-20.70
2022,02,28,20,46,-20.70
2022,02,28,20,47,-20.70
2022,02,28,20,48,-20.70
2022,02,28,20,49,-20.60
2022,02,28,20,50,-20.60
2022,02,28,20,51,-20.70
2022,02,28,20,52,-20.70
2022,02,28,20,53,-20.70
2022,02,28,20,54,-20.80
2022,02,28,20,55,-20.70
2022,02,28,20,56,-20.80
2022,02,28,20,57,-20.70
2022,02,28,20,58,-20.80
2022,02,28,20,59,-20.70
2022,02,28,21,00,-20.80
2022,02,28,21,01,-20.90
2022,02,28,21,02,-20.80
2022,02,28,21,03,-20.90
2022,02,28,21,04,-20.80
2022,02,28,21,05,-20.70
2022,02,28,21,06,-20.80
2022,02,28,21,07,-20.90
2022,02,28,21,08,-21.00
2022,02,28,21,09,-20.90
2022,02,28,21,10,-21.00
2022,02,28,21,11,-21.00
2022,02,28,21,12,-21.10
2022,02,28,21,13,-20.80
2022,02,28,21,14,-20.80
2022,02,28,21,15,-20.90
2022,02,28,21,16,-21.10
2022,02,28,21,17,-21.00
2022,02,28,21,18,-20.90
2022,02,28,21,19,-20.80
2022,02,28,21,20,-20.80
2022,02,28,21,21,-20.90
2022,02,28,21,22,-20.80
2022,02,28,21,23,-20.80
2022,02,28,21,24,-20.80
2022,02,28,21,25,-20.80
2022,02,28,21,26,-20.80
2022,02,28,21,27,-20.80
2022,02,28,21,28,-20.80
2022,02,28,21,29,-20.80
2022,02,28,21,30,-20.80
2022,02,28,21,31,-20.80
2022,02,28,21,32,-20.80
2022,02,28,21,33,-20.90
2022,02,28,21,34,-20.90
2022,02,28,21,35,-20.80
2022,02,28,21,36,-20.80
2022,02,28,21,37,-20.90
2022,02,28,21,38,-20.90
2022,02,28,21,39,-20.80
2022,02,28,21,40,-20.80
2022,02,28,21,41,-20.70
2022,02,28,21,42,-20.80
2022,02,28,21,43,-20.70
2022,02,28,21,44,-20.70
2022,02,28,21,45,-20.70
2022,02,28,21,46,-20.70
2022,02,28,21,47,-20.70
2022,02,28,21,48,-20.80
2022,02,28,21,49,-20.80
2022,02,28,21,50,-20.80
2022,02,28,21,51,-20.80
2022,02,28,21,52,-20.80
2022,02,28,21,53,-20.80
2022,02,28,21,54,-20.70
2022,02,28,21,55,-20.70
2022,02,28,21,56,-20.60
2022,02,28,21,57,-20.60
2022,02,28,21,58,-20.50
2022,02,28,21,59,-20.50
2022,02,28,22,00,-20.50
2022,02,28,22,01,-20.50
2022,02,28,22,02,-20.50
2022,02,28,22,03,-20.50
2022,02,28,22,04,-20.50
2022,02,28,22,05,-20.50
2022,02,28,22,06,-20.50
2022,02,28,22,07,-20.50
2022,02,28,22,08,-20.50
2022,02,28,22,09,-20.50
2022,02,28,22,10,-20.50
2022,02,28,22,11,-20.50
2022,02,28,22,12,-20.50
2022,02,28,22,13,-20.50
2022,02,28,22,14,-20.50
2022,02,28,22,15,-20.50
2022,02,28,22,16,-20.60
2022,02,28,22,17,-20.60
2022,02,28,22,18,-20.70
2022,02,28,22,19,-20.60
2022,02,28,22,20,-20.70
2022,02,28,22,21,-20.70
2022,02,28,22,22,-20.70
2022,02,28,22,23,-20.70
2022,02,28,22,24,-20.70
2022,02,28,22,25,-20.70
2022,02,28,22,26,-20.70
2022,02,28,22,27,-20.70
2022,02,28,22,28,-20.70
2022,02,28,22,29,-20.70
2022,02,28,22,30,-20.70
2022,02,28,22,31,-20.70
2022,02,28,22,32,-20.70
2022,02,28,22,33,-20.70
2022,02,28,22,34,-20.70
2022,02,28,22,35,-20.70
2022,02,28,22,36,-20.70
2022,02,28,22,37,-20.70
2022,02,28,22,38,-20.70
2022,02,28,22,39,-20.70
2022,02,28,22,40,-20.70
2022,02,28,22,41,-20.70
2022,02,28,22,42,-20.70
2022,02,28,22,43,-20.70
2022,02,28,22,44,-20.70
2022,02,28,22,45,-20.70
2022,02,28,22,46,-20.70
2022,02,28,22,47,-20.60
2022,02,28,22,48,-20.60
2022,02,28,22,49,-20.60
2022,02,28,22,50,-20.50
2022,02,28,22,51,-20.60
2022,02,28,22,52,-20.60
2022,02,28,22,53,-20.50
2022,02,28,22,54,-20.60
2022,02,28,22,55,-20.60
2022,02,28,22,56,-20.60
2022,02,28,22,57,-20.60
2022,02,28,22,58,-20.60
2022,02,28,22,59,-20.50
2022,02,28,23,00,-20.50
2022,02,28,23,01,-20.50
2022,02,28,23,02,-20.50
2022,02,28,23,03,-20.50
2022,02,28,23,04,-20.50
2022,02,28,23,05,-20.50
2022,02,28,23,06,-20.50
2022,02,28,23,07,-20.50
2022,02,28,23,08,-20.50
2022,02,28,23,09,-20.50
2022,02,28,23,10,-20.50
2022,02,28,23,11,-20.50
2022,02,28,23,12,-20.50
2022,02,28,23,13,-20.50
2022,02,28,23,14,-20.50
2022,02,28,23,15,-20.40
2022,02,28,23,16,-20.50
2022,02,28,23,17,-20.50
2022,02,28,23,18,-20.50
2022,02,28,23,19,-20.50
2022,02,28,23,20,-20.50
2022,02,28,23,21,-20.50
2022,02,28,23,22,-20.50
2022,02,28,23,23,-20.50
2022,02,28,23,24,-20.50
2022,02,28,23,25,-20.50
2022,02,28,23,26,-20.50
2022,02,28,23,27,-20.50
2022,02,28,23,28,-20.50
2022,02,28,23,29,-20.50
2022,02,28,23,30,-20.50
2022,02,28,23,31,-20.50
2022,02,28,23,32,-20.50
2022,02,28,23,33,-20.50
2022,02,28,23,34,-20.50
2022,02,28,23,35,-20.50
2022,02,28,23,36,-20.50
2022,02,28,23,37,-20.50
2022,02,28,23,38,-20.50
2022,02,28,23,39,-20.50
2022,02,28,23,40,-20.50
2022,02,28,23,41,-20.50
2022,02,28,23,42,-20.50
2022,02,28,23,43,-20.50
2022,02,28,23,44,-20.50
2022,02,28,23,45,-20.50
2022,02,28,23,46,-20.50
2022,02,28,23,47,-20.50
2022,02,28,23,48,-20.50
2022,02,28,23,49,-20.50
2022,02,28,23,50,-20.50
2022,02,28,23,51,-20.50
2022,02,28,23,52,-20.50
2022,02,28,23,53,-20.50
2022,02,28,23,54,-20.50
2022,02,28,23,55,-20.50
2022,02,28,23,56,-20.50
2022,02,28,23,57,-20.50
2022,02,28,23,58,-20.50
2022,02,28,23,59,-20.50
